| time (UTC) | temp F | wind direction | speed MPH | gust MPH | rain 1hr in | rain 24hr in | rain mn in | humidity % | barometer mb |
| 20260507010705 | 47 | 71 | 0.0 | 1.0 | 0.00 | 0.00 | 0.00 | 75 | 1004.9 |
| 20260507010206 | 47 | 71 | 0.0 | 3.0 | 0.00 | 0.00 | 0.00 | 75 | 1004.8 |
| 20260507003206 | 48 | 168 | 0.0 | 5.0 | 0.00 | 0.00 | 0.00 | 73 | 1004.5 |
| 20260507000705 | 49 | 103 | 1.0 | 2.0 | 0.00 | 0.00 | 0.00 | 72 | 1004.1 |
| 20260507000205 | 49 | 137 | 0.0 | 3.0 | 0.00 | 0.00 | 0.00 | 72 | 1004.0 |
| 20260506233705 | 50 | 120 | 1.0 | 2.0 | 0.00 | 0.00 | 0.00 | 70 | 1003.8 |
| 20260506230705 | 51 | 128 | 0.0 | 2.0 | 0.00 | 0.00 | 0.00 | 68 | 1003.7 |
| 20260506230205 | 51 | 129 | 1.0 | 9.0 | 0.00 | 0.00 | 0.00 | 67 | 1003.7 |
| 20260506223705 | 51 | 0 | 2.0 | 3.0 | 0.00 | 0.00 | 0.00 | 68 | 1003.7 |
| 20260506223205 | 52 | 3 | 0.0 | 3.0 | 0.00 | 0.00 | 0.00 | 67 | 1003.6 |
| 20260506220705 | 52 | 230 | 1.0 | 3.0 | 0.00 | 0.00 | 0.00 | 66 | 1003.7 |
| 20260506213705 | 53 | 154 | 2.0 | 3.0 | 0.00 | 0.00 | 0.00 | 63 | 1003.5 |
| 20260506210705 | 53 | 131 | 2.0 | 7.0 | 0.00 | 0.00 | 0.00 | 65 | 1003.6 |
| 20260506203205 | 53 | 121 | 2.0 | 9.0 | 0.00 | 0.00 | 0.00 | 64 | 1003.5 |
| 20260506200206 | 54 | 37 | 2.0 | 13.0 | 0.00 | 0.00 | 0.00 | 62 | 1003.5 |
| 20260506193205 | 56 | 182 | 2.0 | 12.0 | 0.00 | 0.00 | 0.00 | 57 | 1003.5 |
| 20260506190705 | 56 | 31 | 2.0 | 8.0 | 0.00 | 0.00 | 0.00 | 56 | 1003.5 |
| 20260506190205 | 55 | 196 | 3.0 | 9.0 | 0.00 | 0.00 | 0.00 | 56 | 1003.4 |
| 20260506180705 | 53 | 329 | 5.0 | 10.0 | 0.00 | 0.02 | 0.00 | 48 | 1003.7 |
| 20260506173704 | 53 | 314 | 4.0 | 8.0 | 0.00 | 0.04 | 0.00 | 47 | 1003.9 |
| 20260506173204 | 53 | 306 | 1.0 | 5.0 | 0.00 | 0.04 | 0.00 | 47 | 1004.0 |
| 20260506170706 | 53 | 274 | 2.0 | 3.0 | 0.00 | 0.04 | 0.00 | 47 | 1004.1 |
| 20260506170206 | 53 | 146 | 1.0 | 8.0 | 0.00 | 0.04 | 0.00 | 47 | 1004.1 |
| 20260506163706 | 51 | 310 | 2.0 | 5.0 | 0.00 | 0.04 | 0.00 | 48 | 1004.4 |
| 20260506163205 | 51 | 178 | 1.0 | 3.0 | 0.00 | 0.04 | 0.00 | 49 | 1004.4 |
| 20260506160706 | 51 | 289 | 1.0 | 3.0 | 0.00 | 0.04 | 0.00 | 51 | 1004.9 |
| 20260506153706 | 49 | 354 | 1.0 | 3.0 | 0.00 | 0.04 | 0.00 | 56 | 1005.3 |
| 20260506153206 | 49 | 315 | 2.0 | 3.0 | 0.00 | 0.04 | 0.00 | 54 | 1005.4 |
| 20260506150706 | 48 | 0 | 1.0 | 3.0 | 0.00 | 0.04 | 0.00 | 58 | 1005.6 |
| 20260506150205 | 48 | 0 | 1.0 | 3.0 | 0.00 | 0.04 | 0.00 | 60 | 1005.6 |
| 20260506143706 | 47 | 0 | 1.0 | 2.0 | 0.00 | 0.04 | 0.00 | 59 | 1005.4 |
| 20260506143206 | 47 | 0 | 2.0 | 3.0 | 0.00 | 0.04 | 0.00 | 58 | 1005.5 |
| 20260506140706 | 46 | 340 | 1.0 | 1.0 | 0.00 | 0.04 | 0.00 | 60 | 1005.3 |
| 20260506140206 | 46 | 341 | 1.0 | 3.0 | 0.00 | 0.05 | 0.00 | 63 | 1005.4 |
| 20260506133706 | 45 | 327 | 1.0 | 3.0 | 0.00 | 0.06 | 0.00 | 72 | 1005.5 |
| 20260506133206 | 45 | 260 | 1.0 | 3.0 | 0.00 | 0.07 | 0.00 | 72 | 1005.5 |
| 20260506130706 | 44 | 0 | 0.0 | 2.0 | 0.00 | 0.08 | 0.00 | 76 | 1005.4 |
| 20260506130205 | 44 | 0 | 1.0 | 2.0 | 0.00 | 0.08 | 0.00 | 77 | 1005.5 |
| 20260506123706 | 44 | 0 | 0.0 | 0.0 | 0.00 | 0.08 | 0.00 | 77 | 1005.4 |
| 20260506123205 | 44 | 0 | 0.0 | 1.0 | 0.00 | 0.08 | 0.00 | 76 | 1005.4 |
| 20260506120206 | 43 | 0 | 0.0 | 1.0 | 0.00 | 0.08 | 0.00 | 80 | 1005.6 |
| 20260506113706 | 42 | 0 | 0.0 | 0.0 | 0.00 | 0.08 | 0.00 | 80 | 1005.5 |
| 20260506113206 | 42 | 0 | 0.0 | 0.0 | 0.00 | 0.08 | 0.00 | 80 | 1005.6 |
| 20260506110705 | 42 | 0 | 0.0 | 0.0 | 0.00 | 0.08 | 0.00 | 80 | 1005.6 |
| 20260506110207 | 42 | 0 | 0.0 | 1.0 | 0.00 | 0.08 | 0.00 | 80 | 1005.7 |
| 20260506103705 | 41 | 163 | 0.0 | 0.0 | 0.00 | 0.08 | 0.00 | 75 | 1005.7 |
| 20260506103206 | 41 | 162 | 0.0 | 1.0 | 0.00 | 0.08 | 0.00 | 73 | 1005.7 |
| 20260506100706 | 42 | 162 | 1.0 | 1.0 | 0.00 | 0.08 | 0.00 | 72 | 1005.6 |
| 20260506100205 | 42 | 162 | 0.0 | 2.0 | 0.00 | 0.08 | 0.00 | 71 | 1005.4 |
| 20260506093707 | 42 | 162 | 1.0 | 2.0 | 0.00 | 0.08 | 0.00 | 69 | 1005.5 |
| 20260506093206 | 42 | 162 | 0.0 | 2.0 | 0.00 | 0.08 | 0.00 | 69 | 1005.5 |
| 20260506090705 | 42 | 163 | 1.0 | 2.0 | 0.00 | 0.08 | 0.00 | 68 | 1005.3 |
| 20260506090206 | 43 | 162 | 0.0 | 2.0 | 0.00 | 0.08 | 0.00 | 70 | 1005.4 |
| 20260506083206 | 43 | 163 | 0.0 | 2.0 | 0.00 | 0.08 | 0.00 | 68 | 1005.3 |
| 20260506080206 | 44 | 163 | 0.0 | 2.0 | 0.00 | 0.08 | 0.00 | 68 | 1005.2 |
| 20260506073205 | 44 | 0 | 0.0 | 2.0 | 0.00 | 0.08 | 0.00 | 65 | 1005.2 |
| 20260506070705 | 45 | 0 | 1.0 | 2.0 | 0.00 | 0.08 | 0.00 | 58 | 1005.0 |
| 20260506070206 | 45 | 0 | 1.0 | 2.0 | 0.00 | 0.08 | 0.00 | 61 | 1005.0 |
| 20260506060706 | 45 | 143 | 1.0 | 2.0 | 0.00 | 0.08 | 0.00 | 63 | 1004.9 |
| 20260506050205 | 48 | 70 | 1.0 | 5.0 | 0.00 | 0.08 | 0.00 | 50 | 1004.4 |
| 20260506043205 | 48 | 146 | 1.0 | 3.0 | 0.00 | 0.08 | 0.00 | 51 | 1004.2 |
| 20260506040712 | 49 | 144 | 0.0 | 2.0 | 0.00 | 0.08 | 0.00 | 52 | 1004.1 |
| 20260506040214 | 49 | 166 | 1.0 | 3.0 | 0.00 | 0.08 | 0.00 | 50 | 1004.0 |
| 20260506033715 | 49 | 128 | 0.0 | 1.0 | 0.00 | 0.08 | 0.08 | 50 | 1003.9 |
| 20260506023713 | 51 | 124 | 2.0 | 3.0 | 0.00 | 0.08 | 0.08 | 50 | 1003.3 |
| 20260506023214 | 51 | 132 | 2.0 | 6.0 | 0.00 | 0.08 | 0.08 | 50 | 1003.3 |
| 20260506020705 | 51 | 291 | 1.0 | 3.0 | 0.00 | 0.08 | 0.08 | 52 | 1003.1 |
| 20260506020205 | 51 | 251 | 1.0 | 8.0 | 0.00 | 0.08 | 0.08 | 50 | 1003.1 |
| 20260506013705 | 51 | 67 | 1.0 | 3.0 | 0.00 | 0.08 | 0.08 | 52 | 1002.6 |
| 20260506013205 | 52 | 177 | 2.0 | 8.0 | 0.00 | 0.08 | 0.08 | 53 | 1002.5 |